Location: Croydon
(51.3762°N, 0.0982°W)
Time: 00:11:18
(UTC+00:00)

Altair - Pass Details

Date: 19 November 2019
Orbit: 1502 x 1682 km, 47.2° (Epoch: 07 December)

Event Time Altitude Azimuth Distance (km) Brightness Sun altitude
Rises 03:59:14 0° 238° (WSW) 4,637 - -31.5°
Reaches altitude 10° 04:02:18 10° 235° (SW) 3,651 - -31.1°
Exits shadow 04:08:27 44° 210° (SSW) 1,992 7.8 -30.1°
Maximum altitude 04:11:11 57° 160° (SSE) 1,726 7.7 -29.7°
Drops below altitude 10° 04:20:10 10° 85° (E) 3,700 10.5 -28.3°
Sets 04:23:18 0° 81° (E) 4,703 11.3 -27.8°
